Terug naar catalogus

SL-8 DEB

ActiefLEO
NORAD 21165·DEBRIS·🇷🇺 Russia

Gelanceerd Feb 12, 1991 vanaf Plesetsk Cosmodrome

Loading…

Volgende Passages (komende 24 uur)

TLE

VersSource: Space-Track

Epoch: Sep 13, 2026, 19:08 UTC

1 21165U 91009AC  26256.79777164  .00000257  00000-0  27899-2 0  9994
2 21165  74.1597  77.4143 0160295 282.3927  88.2146 12.12153158571812

Volg SL-8 DEB in realtime met AllMySat

Download on the App Store